GW0092 Weather Reports


time (UTC)temp
C
wind
direction
speed
KPH
gust
KPH
rain 1hr
cm
rain 24hr
cm
rain mn
cm
humidity
%
barometer
mb
20260903004606 23 0 0.0 0.0 0.00 0.94 0.94 98 1017.5
20260903003100 23 0 0.0 0.0 0.00 0.94 0.94 98 1017.5
20260903001555 23 0 0.0 0.0 0.00 0.94 0.94 98 1017.5
20260902234616 23 0 0.0 0.0 0.00 0.94 0.94 97 1017.6
20260902233059 24 0 0.0 0.0 0.00 0.94 0.94 96 1017.2
20260902231626 24 0 0.0 1.6 0.00 0.94 0.94 95 1017.3
20260902230107 25 0 0.0 1.6 0.00 0.94 0.94 95 1017.4
20260902224612 25 0 0.0 0.0 0.00 0.94 0.94 95 1017.7
20260902223107 25 0 0.0 0.0 0.00 0.94 0.94 94 1017.7
20260902221608 25 326 0.0 1.6 0.00 0.94 0.94 94 1017.8
20260902220107 25 0 0.0 1.6 0.00 0.94 0.94 93 1017.6
20260902214604 25 0 0.0 0.0 0.00 0.94 0.94 94 1017.5
20260902213118 25 0 0.0 1.6 0.00 0.94 0.94 94 1017.4
20260902211557 25 308 0.0 3.2 0.00 0.94 0.94 95 1017.6
20260902210106 25 321 0.0 6.4 0.00 0.94 0.94 95 1017.5
20260902204602 24 228 0.0 8.0 0.00 0.94 0.94 96 1016.5
20260902203107 24 104 3.2 6.4 0.00 0.94 0.94 96 1015.7
20260902201608 24 143 0.0 4.8 0.00 0.94 0.94 96 1017.5
20260902200135 25 334 0.0 1.6 0.00 0.94 0.94 94 1019.1
20260902194601 25 335 0.0 4.8 0.00 0.94 0.94 93 1020.0
20260902193108 25 319 0.0 4.8 0.00 0.94 0.94 92 1019.6
20260902191614 25 0 0.0 8.0 0.00 0.94 0.94 92 1019.1
20260902190115 26 356 0.0 8.0 0.00 0.94 0.94 91 1019.7
20260902184602 26 307 1.6 9.7 0.00 0.94 0.94 89 1019.3
20260902183119 26 165 1.6 9.7 0.00 0.94 0.94 89 1019.0
20260902181606 26 0 0.0 3.2 0.00 0.94 0.94 89 1019.3
20260902180126 26 353 0.0 4.8 0.00 0.94 0.94 89 1019.5
20260902174614 27 296 0.0 9.7 0.00 0.94 0.94 89 1019.2
20260902173106 27 267 3.2 9.7 0.00 0.94 0.94 87 1019.1
20260902171608 27 97 0.0 4.8 0.00 0.94 0.94 90 1018.9
20260902170103 27 0 0.0 6.4 0.00 0.94 0.94 91 1018.8
20260902164605 26 250 1.6 6.4 0.00 0.94 0.94 89 1019.1
20260902163104 26 245 0.0 6.4 0.00 0.94 0.94 89 1019.0
20260902161605 27 294 1.6 11.3 0.00 0.94 0.94 88 1018.8
20260902160108 26 0 0.0 8.0 0.00 0.94 0.94 91 1018.9
20260902154607 26 254 1.6 8.0 0.00 0.94 0.94 90 1019.1
20260902153100 26 284 3.2 8.0 0.00 0.94 0.94 91 1019.2
20260902151559 26 247 0.0 4.8 0.00 0.94 0.94 90 1019.2
20260902144603 27 135 1.6 9.7 0.00 0.94 0.94 91 1018.9
20260902143105 26 89 3.2 6.4 0.00 0.94 0.94 92 1018.8
20260902141602 25 304 1.6 9.7 0.00 0.94 0.94 94 1018.8
20260902140104 25 349 0.0 3.2 0.00 0.94 0.94 96 1018.8
20260902134605 25 326 3.2 9.7 0.00 0.94 0.94 98 1018.3
20260902133104 24 10 1.6 8.0 0.00 0.94 0.94 99 1018.4
20260902131608 23 309 1.6 6.4 0.00 0.94 0.94 100 1018.1
20260902130057 23 0 0.0 4.8 0.00 0.94 0.94 100 1018.0
20260902124603 23 316 0.0 4.8 0.00 0.94 0.94 100 1018.1
20260902123059 23 266 0.0 3.2 0.00 0.94 0.94 100 1018.1
20260902121604 23 0 0.0 0.0 0.00 0.94 0.94 100 1018.2
20260902120056 22 0 0.0 0.0 0.00 0.94 0.94 100 1018.4
20260902114604 22 0 0.0 0.0 0.00 0.94 0.94 100 1018.2
20260902113113 22 0 0.0 0.0 0.00 0.94 0.94 100 1018.1
20260902111602 22 0 0.0 0.0 0.00 0.94 0.94 100 1018.0
20260902110057 22 0 0.0 0.0 0.00 0.94 0.94 100 1017.9
20260902104601 22 0 0.0 0.0 0.00 0.94 0.94 100 1017.8
20260902103100 22 0 0.0 0.0 0.00 0.94 0.94 100 1017.7
20260902101607 22 305 0.0 4.8 0.00 0.94 0.94 100 1017.6
20260902100101 22 9 0.0 3.2 0.00 0.94 0.94 100 1017.3
20260902094602 22 295 1.6 3.2 0.00 0.94 0.94 100 1017.0
20260902093057 22 340 0.0 3.2 0.00 0.94 0.94 100 1016.8
20260902091605 22 6 1.6 6.4 0.00 0.94 0.94 100 1016.8
20260902090128 22 0 0.0 1.6 0.00 0.94 0.94 100 1016.5
20260902084603 22 328 0.0 3.2 0.00 0.94 0.94 100 1016.2
20260902083115 22 0 0.0 1.6 0.00 0.94 0.94 99 1016.0
20260902081608 22 0 0.0 0.0 0.00 0.94 0.94 99 1015.9
20260902080111 22 0 0.0 0.0 0.08 0.94 0.94 99 1016.0
20260902074558 22 0 0.0 1.6 0.08 0.94 0.94 99 1016.1
20260902073100 22 0 0.0 3.2 0.08 0.94 0.94 99 1016.1
20260902071602 22 0 0.0 1.6 0.08 0.94 0.94 99 1016.3
20260902070106 22 261 0.0 4.8 0.10 0.86 0.86 99 1017.0
20260902064607 22 0 0.0 1.6 0.71 0.86 0.86 99 1016.6
20260902063102 22 0 0.0 1.6 0.86 0.86 0.86 98 1016.4
20260902061625 22 0 0.0 8.0 0.86 0.86 0.86 98 1016.8
20260902060104 22 157 0.0 8.0 0.76 0.76 0.76 97 1017.4
20260902054604 23 292 3.2 9.7 0.15 0.15 0.15 96 1018.5
20260902053058 23 321 3.2 6.4 0.00 0.00 0.00 94 1018.2
20260902051557 23 0 0.0 1.6 0.00 0.00 0.00 93 1017.5
20260902050107 23 0 0.0 1.6 0.00 0.00 0.00 93 1017.3
20260902044603 23 0 0.0 3.2 0.00 0.00 0.00 92 1017.2
20260902043118 24 0 0.0 8.0 0.00 0.00 0.00 91 1017.2
20260902041609 25 144 3.2 16.1 0.00 0.00 0.00 89 1017.3
20260902040107 26 286 0.0 4.8 0.00 0.00 0.00 88 1017.3
20260902034601 26 308 3.2 17.7 0.00 0.00 0.00 89 1017.0
20260902033114 25 277 8.0 19.3 0.00 0.00 0.00 94 1017.2
20260902031605 25 0 0.0 0.0 0.00 0.00 0.00 96 1015.7
20260902030118 25 0 0.0 0.0 0.00 0.00 0.00 96 1015.4
20260902024601 25 0 0.0 0.0 0.00 0.00 0.00 97 1015.4
20260902023115 25 0 0.0 0.0 0.00 0.00 0.00 97 1015.4
20260902021621 25 0 0.0 0.0 0.00 0.00 0.00 97 1015.3
20260902020104 25 0 0.0 0.0 0.00 0.00 0.00 97 1015.4
20260902014605 25 0 0.0 0.0 0.00 0.00 0.00 97 1014.9
20260902013056 25 0 0.0 0.0 0.00 0.00 0.00 97 1014.6
20260902011602 26 0 0.0 0.0 0.00 0.00 0.00 97 1014.9